Regional Weather Roundup
Issued by NWS

Home | Current Version | Previous Version | Text Only | Print | Product List | Glossary Off
Versions: 1 2 3 4 5 6 7 8 9 10 11 12 13 14 15 16 17 18 19 20 21 22 23 24 25 26 27 28 29 30 31

000
ASUS45 KCYS 211610
RWRWY

WYOMING REGIONAL WEATHER ROUNDUP
NATIONAL WEATHER SERVICE CHEYENNE WY
1000 AM MDT TUE OCT 21 2014

NOTE:  "FAIR" INDICATES FEW OR NO CLOUDS BELOW 12,000 FEET
WITH NO SIGNIFICANT WEATHER AND/OR OBSTRUCTIONS TO VISIBILITY.

WYZ001-211700-
YELLOWSTONE NATIONAL PARK

CITY           SKY/WX    TMP DP  RH WIND       PRES   REMARKS
LK YELLOWSTONE   N/A     43  39  86 CALM      29.98F
W YELLOWSTONE  NOT AVBL

$$
WYZ002>013-054>058-071-098>099-211700-
NORTHERN WYOMING

CITY           SKY/WX    TMP DP  RH WIND       PRES   REMARKS
JACKSON        PTSUNNY   39  39 100 NE3       29.97R
CODY           CLOUDY   N/A N/A N/A SW7       29.82S
GREYBULL       SUNNY     52  30  43 CALM      29.81S
WORLAND        SUNNY     63  36  36 S6        29.82S
SHERIDAN       SUNNY     59  39  47 NE5       29.75F
BUFFALO        SUNNY     73  30  20 SW10      29.82F
GILLETTE       SUNNY     67  38  34 SW25G33   29.80F
HULETT         FAIR      68  37  32 S21G28    29.83
NEWCASTLE      FAIR      64  34  32 SE14      29.90

$$
WYZ014>020-022>026-101>103-211700-
CENTRAL WYOMING

CITY           SKY/WX    TMP DP  RH WIND       PRES   REMARKS
BIG PINEY      PTSUNNY   44  33  65 CALM      30.03S
PINEDALE       CLOUDY    45  39  81 E6        30.03F
DUBOIS         PTSUNNY   45  36  70 NW10      29.96F
LANDER         PTSUNNY   60  39  45 VRB3      29.89F
RIVERTON       CLOUDY    49  32  52 NW3       29.92F
CASPER         SUNNY     63  37  38 SW23G31   29.95R
DOUGLAS        MOSUNNY   64  38  38 SE9       29.95F

$$
WYZ021-027>030-104>119-211700-
SOUTHERN WYOMING

CITY           SKY/WX    TMP DP  RH WIND       PRES   REMARKS
EVANSTON       MOSUNNY   54  39  57 SW17      30.02S
KEMMERER       PTSUNNY   50  36  57 S9        30.03R
FORT BRIDGER   FAIR      56  36  47 SW15G23   30.05S
ROCK SPRINGS   MOSUNNY   58  36  43 SW13      30.03S
RAWLINS        SUNNY     59  37  44 S23G35    30.05F
SARATOGA       PTSUNNY   55  36  47 SE8       30.11S
LARAMIE        MOSUNNY   52  36  54 S3        30.10F
CHEYENNE       MOSUNNY   67  37  33 W16       30.05S
TORRINGTON     PTSUNNY   54  40  59 CALM      29.96F
PINE BLUFFS    FAIR      63  39  42 CALM      30.02F

$$


USA.gov is the U.S. government's official web portal to all federal, state and local government web resources and services.